Temperature
20 20 20 19 19 19 19 19 19 19 19 19 19 19 19 19 19 19 19 19 19 19 19 19 19 19 19 19 19 19 18 18 18 18 18 18 18 18 18 18 18 18 18
20 20 20 19 19 19 19 19 19 19 19 19 19 19 19 19 19 19 19 19 19 19 19 19 19 19 19 19 18 19 18 18 18 18 18 18 18 18 18 18 18 18 18
20 20 19 19 19 19 19 19 19 19 19 19 19 19 19 19 19 19 19 19 19 19 19 19 19 19 19 18 18 18 18 18 18 18 18 18 18 18 18 18 18 18 18
20 20 20 19 19 19 19 19 19 19 19 19 19 19 19 19 19 19 19 19 19 19 19 19 19 19 18 18 18 18 18 18 18 18 18 18 18 18 18 18 18 18 17
20 20 20 19 19 19 19 19 19 19 19 19 19 19 19 19 19 19 19 19 19 19 19 19 19 18 18 18 18 18 18 18 18 18 18 18 18 18 18 18 18 17 17
20 20 20 20 20 19 19 19 19 19 19 19 19 19 19 19 19 19 19 19 19 19 19 19 19 18 18 18 18 18 18 18 18 18 18 18 18 18 18 18 17 17 17
20 20 20 20 20 19 19 19 19 19 19 19 19 19 19 19 19 19 19 19 19 19 18 18 18 18 18 18 18 18 18 18 18 18 18 18 18 18 18 18 17 17 17
20 20 20 20 20 20 19 19 19 19 19 19 19 19 19 19 19 19 19 19 19 18 18 18 18 18 18 18 18 18 18 18 18 18 18 18 18 18 18 18 17 17 17
20 20 20 20 20 20 19 19 19 19 19 19 19 19 19 19 19 19 19 19 19 18 18 18 18 18 18 18 18 18 18 18 18 18 18 18 18 18 18 18 17 17 17
20 20 20 20 20 20 19 19 19 19 19 19 19 19 19 19 19 19 19 19 18 18 18 18 18 18 18 18 18 18 18 18 18 18 18 18 18 18 18 18 17 17 17
20 20 20 20 20 20 19 19 19 19 19 19 19 19 19 19 19 18 18 18 18 18 18 18 18 18 18 18 18 18 18 18 18 18 18 18 18 18 18 17 17 17 17
20 20 20 20 20 20 20 19 19 19 19 19 19 19 19 19 18 18 18 18 18 18 18 18 18 18 18 18 18 18 18 18 18 18 18 18 18 18 18 17 17 17 17
20 20 20 20 20 20 20 19 19 19 19 19 19 19 19 19 19 18 18 18 18 18 18 18 18 18 18 18 18 18 18 18 18 18 18 18 18 18 18 18 17 17 17
20 20 20 20 20 20 19 20 19 19 19 19 19 19 19 19 19 18 18 18 18 18 18 18 18 18 18 18 18 18 18 18 18 18 18 18 18 18 18 18 17 17 17
20 20 20 20 20 20 20 19 19 19 19 19 19 19 19 19 19 19 19 18 18 18 18 18 18 18 18 18 18 18 18 18 18 18 18 18 18 18 18 18 17 17 17
20 20 20 20 20 20 20 19 19 19 19 19 19 19 19 19 19 19 19 18 18 18 18 18 18 18 18 18 18 18 18 18 18 18 18 18 18 18 18 18 17 17 17
21 20 20 20 20 20 20 19 19 19 19 19 19 19 19 19 19 19 19 19 18 18 18 18 18 18 18 18 18 18 18 18 18 18 18 18 18 18 18 17 17 17 17
21 20 20 20 20 20 20 19 19 19 19 19 19 19 19 19 19 19 19 19 18 18 18 18 18 18 18 18 18 18 18 18 18 18 18 18 18 18 18 17 17 17 17
21 20 20 20 20 20 20 19 19 19 19 19 19 19 19 19 19 19 19 19 19 19 18 18 18 18 18 18 18 18 18 18 18 18 18 18 18 18 17 17 17 17 17
21 20 20 20 20 20 20 19 19 19 19 19 19 19 19 19 19 19 19 19 19 18 18 18 18 18 18 18 18 18 18 18 18 18 18 18 18 18 18 17 17 17 17
21 20 20 20 20 20 20 20 19 19 19 19 19 19 19 19 19 19 19 19 18 18 18 18 18 18 18 18 18 18 18 18 18 18 18 18 18 18 18 18 18 17 17
21 21 20 20 20 20 20 20 19 19 19 19 19 19 19 19 19 19 19 19 19 18 18 18 18 18 18 18 18 18 18 18 18 18 18 18 18 18 18 18 17 17 17
21 21 20 20 20 20 20 19 19 19 19 19 19 19 19 19 19 18 18 19 18 19 18 18 18 18 18 18 18 18 18 17 17 18 18 18 18 18 18 18 18 17 17
21 20 20 20 20 20 19 19 19 19 19 19 19 19 19 18 18 18 18 18 18 18 18 18 18 18 18 18 18 18 18 18 17 17 17 18 18 18 18 17 17 17 17
21 20 20 20 20 20 19 19 19 19 19 19 19 19 19 18 18 18 18 18 18 18 18 18 18 18 18 18 18 18 18 18 18 17 17 17 17 17 17 17 17 17 17
21 20 20 20 20 20 19 19 19 19 19 19 19 18 18 18 18 18 18 18 18 18 18 18 18 18 18 18 18 18 18 18 18 17 17 17 17 17 17 17 17 17 17
Wind_Speed
2 2 1 2 2 3 3 4 3 3 5 5 5 6 7 7 7 8 9 9 10 12 14 14 15 16 16 16 16 16 16 16 16 15 15 15 14 14 13 12 11 9 11
1 1 0 2 3 3 4 5 5 5 6 6 6 7 7 7 7 8 9 10 10 11 13 14 15 15 16 15 15 15 15 16 15 14 14 14 13 13 12 11 10 8 10
1 1 1 3 3 4 5 6 6 6 6 7 7 7 8 8 8 8 9 10 10 11 12 14 15 15 15 14 14 14 15 15 14 14 13 10 11 12 12 11 10 9 9
1 2 2 4 4 5 6 7 7 7 7 7 7 8 8 8 8 8 9 9 10 11 12 14 15 15 14 14 13 13 14 14 14 12 9 8 8 11 11 10 10 9 9
2 2 2 5 5 6 6 6 6 6 7 7 8 8 8 8 7 7 8 9 10 11 11 13 14 14 14 13 13 13 13 13 13 10 8 7 7 10 10 10 9 9 9
2 2 2 5 5 5 5 6 6 7 7 8 8 8 8 7 7 6 7 9 10 10 10 12 13 13 13 13 13 13 13 12 11 9 8 7 6 9 9 9 9 9 9
2 2 2 4 5 5 5 6 6 6 7 7 8 8 8 7 6 6 7 9 10 10 10 11 12 13 12 12 12 12 12 11 9 8 7 7 7 8 8 8 8 8 8
2 3 3 3 4 4 5 5 5 6 7 7 8 8 8 7 7 7 8 9 10 11 11 11 12 12 11 11 11 11 12 11 9 8 7 7 8 8 7 7 8 7 8
4 4 4 3 3 3 4 4 5 6 7 7 7 7 7 7 8 9 10 10 10 11 10 11 11 11 10 11 11 11 11 10 8 7 7 6 8 7 7 7 7 7 7
4 4 4 4 4 3 3 4 5 6 7 7 7 7 7 7 8 10 10 10 11 11 11 11 11 11 10 10 10 10 9 8 7 6 5 6 8 7 7 7 7 7 7
3 3 4 4 4 4 3 3 4 5 6 6 6 7 6 5 5 7 9 10 11 11 10 11 10 10 9 9 9 9 7 5 6 5 5 7 8 7 7 7 7 7 7
1 2 3 3 3 3 3 3 3 3 4 4 4 4 5 5 5 7 8 9 10 9 9 10 9 8 7 5 6 6 5 5 5 4 5 7 7 7 7 6 6 7 7
0 1 2 2 3 3 3 3 3 3 3 4 5 5 4 5 5 5 5 5 6 7 6 7 7 5 5 4 4 4 4 4 4 4 5 7 7 7 6 6 7 6 6
1 1 2 2 2 2 3 3 3 3 3 3 4 4 4 3 4 4 4 4 5 4 5 4 4 4 5 4 4 3 3 3 3 3 4 6 6 6 6 6 7 6 6
1 1 1 2 2 2 2 2 3 3 3 3 3 4 4 3 3 3 3 4 4 4 4 3 3 3 3 3 3 3 3 3 3 3 3 4 5 6 6 6 6 6 7
2 2 1 2 2 2 2 2 2 2 2 3 3 3 3 3 2 3 3 3 3 3 3 3 3 3 2 2 2 2 2 2 3 2 2 3 4 5 5 6 6 7 7
3 2 3 3 2 3 2 2 2 2 3 3 2 2 2 2 2 2 3 2 2 3 4 3 3 3 2 2 2 2 2 2 2 2 2 1 2 3 4 4 5 5 6
3 3 3 3 3 3 2 2 2 3 3 2 2 2 2 2 3 3 3 2 2 3 3 3 3 3 2 2 2 1 1 1 1 1 2 2 2 2 3 4 4 5 5
3 3 3 3 3 3 3 3 3 3 3 2 2 2 2 3 3 3 2 2 3 2 2 2 2 2 2 2 1 1 1 1 0 1 1 2 2 2 2 3 5 5 6
3 3 3 3 3 3 3 3 3 4 3 2 2 2 3 3 3 3 2 3 3 3 2 3 3 3 2 1 2 2 2 1 0 0 1 2 2 3 3 3 4 5 6
3 3 3 3 2 3 2 2 2 1 1 2 2 3 3 3 3 3 2 3 2 2 2 3 2 3 2 1 2 2 2 2 1 0 1 1 2 2 2 3 3 4 4
3 2 2 3 3 2 2 2 2 2 1 1 1 3 3 2 2 3 2 2 2 2 3 2 2 2 1 1 2 1 2 3 2 1 0 1 2 1 1 2 3 3 3
3 3 3 2 3 2 3 3 3 3 3 3 3 2 2 2 2 2 2 2 2 2 2 1 1 2 1 0 1 2 1 1 2 2 1 1 1 1 2 2 2 3 4
3 3 2 2 2 2 3 3 4 3 1 0 0 1 2 2 2 1 2 1 1 1 1 1 1 1 2 1 0 0 1 2 1 1 2 2 2 2 2 2 2 3 3
4 4 3 3 2 2 3 4 4 3 1 1 1 2 2 2 2 2 1 1 1 1 1 1 1 1 1 1 1 1 1 1 1 1 2 2 2 2 2 2 2 2 2
3 3 3 3 2 2 3 3 4 4 3 2 1 1 1 1 2 2 2 1 1 0 1 1 1 1 1 1 1 1 1 1 2 2 2 1 2 2 2 2 2 2 2
Wind_Direction
301 293 291 78 99 93 91 91 93 121 138 140 138 135 136 136 134 141 150 151 150 152 156 157 155 153 153 153 154 154 153 150 148 149 150 149 148 148 146 144 142 141 142
277 282 118 95 94 86 80 82 80 92 112 126 130 133 132 132 129 131 138 141 142 144 148 151 150 150 152 153 154 155 156 151 149 150 149 150 150 151 148 147 146 144 146
29 353 89 87 81 78 78 76 80 85 98 111 121 127 127 127 123 120 125 132 138 143 145 148 148 150 152 151 150 152 152 150 149 149 146 145 151 152 151 152 152 150 150
55 36 92 85 72 75 72 72 75 77 90 105 113 119 121 122 122 125 125 128 137 142 144 147 150 151 150 148 147 148 150 151 148 142 135 138 148 152 155 156 156 154 153
48 44 79 80 73 72 71 72 72 74 90 104 108 115 118 117 119 122 127 129 133 137 141 146 149 148 147 145 142 145 147 145 141 136 129 133 142 156 158 157 157 157 156
41 48 78 79 73 69 68 70 72 76 87 97 105 108 113 112 113 117 129 131 131 132 137 143 147 144 141 141 140 138 139 138 135 131 132 140 149 161 162 160 161 162 162
40 26 61 73 64 62 64 69 72 77 86 93 96 99 102 104 102 101 125 133 131 129 128 131 134 136 135 135 136 136 135 137 134 134 137 145 155 161 164 163 160 162 161
53 21 22 54 56 54 57 66 75 78 85 90 93 94 96 95 90 87 110 128 133 132 129 126 124 125 125 128 133 136 137 138 138 143 144 153 161 165 165 161 158 159 159
42 26 11 19 31 50 62 71 81 84 83 84 85 87 91 91 86 84 97 113 126 127 125 125 124 122 120 121 126 129 135 135 135 137 150 156 165 168 165 163 160 158 158
38 20 9 14 24 32 46 63 77 82 79 79 80 77 81 88 89 85 88 102 113 117 120 123 120 117 113 113 117 123 133 130 132 135 146 157 160 162 165 167 168 167 164
37 9 7 11 19 28 41 56 64 71 70 69 67 67 66 61 74 84 89 96 101 107 111 114 114 114 110 110 116 120 117 122 131 135 145 158 161 163 168 171 174 175 173
34 351 1 12 18 27 51 51 51 60 57 56 54 52 52 55 65 74 80 89 94 99 104 107 108 105 96 98 108 109 112 125 134 142 150 158 164 171 177 180 181 180 180
156 15 3 23 36 44 46 53 48 53 53 51 55 57 62 60 60 61 58 58 64 77 80 87 87 83 84 91 97 106 125 135 142 149 161 169 174 184 189 192 188 187 186
106 35 11 37 50 47 55 50 50 53 57 52 51 58 66 65 62 61 61 56 56 65 71 68 71 69 76 81 93 105 113 132 139 147 171 182 186 190 191 192 188 185 183
143 149 75 67 69 66 65 50 56 50 57 61 54 54 68 73 67 69 70 68 66 72 82 82 76 66 69 72 85 102 106 119 138 141 159 180 186 190 193 197 195 196 197
174 173 137 109 94 87 81 65 52 49 56 63 59 54 67 82 82 80 77 73 75 79 87 92 91 81 68 71 76 86 100 122 131 141 158 180 182 191 203 209 213 214 216
174 165 146 143 107 100 85 70 66 56 67 63 57 58 69 89 100 97 86 83 89 95 99 100 93 90 90 83 77 76 92 119 140 151 162 170 197 203 208 213 221 229 233
152 152 154 140 120 112 97 77 67 64 68 60 55 56 60 80 104 99 90 87 100 95 96 97 94 90 83 80 64 50 76 107 158 169 171 182 205 221 229 233 238 246 254
156 148 140 125 125 123 105 86 71 66 61 54 56 60 63 73 91 98 88 79 93 91 87 102 89 100 97 82 73 47 46 59 187 200 200 212 219 225 239 252 251 254 260
136 127 124 115 109 104 89 77 65 60 50 51 53 54 64 69 78 89 82 67 78 82 76 85 90 79 91 99 85 47 21 14 42 219 229 230 228 231 233 245 254 262 263
114 115 125 117 104 97 89 93 82 65 38 36 42 50 53 65 77 88 83 70 74 84 93 103 104 92 82 99 85 43 20 32 46 288 230 231 242 244 241 245 254 256 265
138 132 131 127 121 122 120 121 122 108 77 55 33 41 39 55 77 93 91 88 86 91 85 88 113 116 94 86 110 84 14 357 0 4 338 247 264 265 257 253 251 251 257
141 152 168 156 141 131 112 94 82 63 45 37 29 23 14 39 72 89 96 96 92 104 114 122 139 147 169 48 104 143 143 240 321 345 5 0 337 306 290 296 278 261 258
160 150 150 152 140 130 122 117 118 115 109 290 345 3 7 32 57 81 93 103 111 117 134 173 144 156 156 205 180 147 188 178 182 317 339 356 351 340 320 308 306 295 277
154 146 144 142 138 134 133 137 129 119 134 85 54 41 18 12 27 47 75 95 107 115 145 139 123 143 159 179 194 181 154 131 170 190 288 331 349 340 326 311 310 312 307
149 144 143 141 144 138 138 143 146 150 150 122 83 50 11 7 9 15 41 49 88 127 178 172 154 160 162 163 183 179 176 177 179 174 215 285 317 321 330 334 335 329 329
Height
1488 1486 1485 1484 1483 1482 1480 1479 1477 1475 1475 1476 1477 1478 1479 1480 1480 1480 1480 1481 1482 1483 1484 1488 1491 1494 1498 1501 1505 1508 1511 1513 1515 1518 1521 1523 1526 1527 1529 1531 1533 1534 1535
1489 1488 1486 1485 1484 1483 1481 1480 1477 1475 1474 1475 1477 1479 1480 1480 1480 1480 1481 1482 1483 1484 1486 1488 1491 1495 1498 1502 1505 1508 1511 1514 1516 1519 1521 1524 1526 1528 1530 1532 1533 1535 1536
1490 1489 1488 1487 1486 1484 1483 1481 1479 1477 1475 1475 1477 1479 1480 1481 1482 1482 1482 1482 1483 1485 1487 1489 1492 1496 1499 1503 1506 1509 1511 1514 1517 1520 1522 1524 1527 1529 1530 1532 1533 1535 1536
1491 1490 1490 1489 1487 1486 1485 1483 1481 1479 1477 1477 1479 1480 1482 1483 1483 1483 1483 1483 1484 1486 1487 1490 1493 1497 1501 1504 1507 1510 1512 1515 1518 1520 1522 1525 1527 1529 1530 1532 1533 1535 1536
1493 1492 1491 1491 1489 1488 1487 1485 1484 1482 1480 1480 1481 1483 1484 1484 1485 1485 1484 1485 1486 1488 1490 1492 1495 1498 1502 1505 1508 1510 1513 1516 1518 1520 1523 1525 1527 1529 1531 1532 1533 1535 1536
1495 1494 1493 1492 1491 1490 1489 1488 1487 1485 1484 1484 1484 1485 1486 1486 1485 1484 1484 1486 1487 1489 1492 1494 1497 1500 1503 1506 1509 1511 1514 1516 1519 1521 1524 1526 1528 1529 1531 1532 1533 1534 1536
1497 1496 1495 1494 1493 1492 1491 1490 1489 1488 1488 1488 1488 1488 1488 1487 1486 1483 1482 1485 1488 1491 1493 1495 1498 1501 1504 1507 1509 1512 1515 1517 1520 1522 1524 1526 1528 1530 1531 1532 1533 1534 1536
1499 1498 1497 1496 1495 1494 1493 1492 1492 1491 1491 1491 1491 1491 1491 1490 1487 1483 1480 1484 1488 1492 1495 1498 1500 1502 1505 1507 1509 1512 1516 1518 1521 1523 1525 1527 1528 1530 1531 1532 1534 1535 1536
1501 1500 1499 1498 1497 1496 1495 1495 1494 1494 1494 1494 1494 1494 1494 1493 1491 1487 1484 1486 1490 1494 1498 1501 1503 1505 1506 1507 1510 1513 1517 1520 1522 1524 1526 1527 1529 1530 1531 1532 1534 1535 1536
1503 1502 1501 1500 1499 1498 1497 1497 1497 1497 1497 1497 1497 1497 1497 1496 1495 1493 1490 1491 1494 1498 1501 1504 1507 1508 1509 1511 1513 1516 1519 1521 1523 1525 1527 1528 1529 1530 1531 1532 1534 1535 1536
1505 1504 1503 1502 1501 1500 1500 1500 1500 1500 1500 1500 1500 1500 1500 1499 1499 1499 1498 1498 1500 1503 1505 1508 1510 1511 1513 1515 1517 1519 1521 1523 1525 1526 1528 1529 1530 1531 1532 1533 1534 1535 1536
1507 1506 1506 1505 1504 1503 1503 1502 1503 1503 1503 1503 1503 1503 1503 1502 1503 1503 1504 1504 1506 1507 1509 1511 1513 1515 1516 1518 1520 1522 1523 1525 1526 1528 1529 1530 1531 1532 1533 1533 1534 1535 1536
1509 1508 1508 1507 1507 1506 1506 1505 1506 1506 1506 1506 1506 1506 1506 1506 1506 1507 1508 1509 1510 1511 1513 1514 1516 1518 1519 1521 1522 1524 1525 1527 1528 1529 1530 1531 1532 1532 1533 1533 1535 1535 1536
1511 1511 1510 1510 1510 1509 1509 1509 1509 1509 1509 1509 1510 1510 1510 1510 1510 1510 1511 1512 1513 1515 1516 1517 1519 1520 1522 1523 1524 1525 1527 1528 1529 1530 1531 1531 1532 1533 1533 1534 1535 1536 1536
1513 1513 1513 1513 1513 1513 1512 1512 1512 1512 1513 1513 1513 1513 1513 1513 1513 1514 1514 1516 1516 1518 1519 1520 1521 1522 1524 1525 1526 1527 1528 1529 1529 1530 1531 1532 1532 1533 1534 1534 1535 1536 1536
1514 1515 1515 1515 1515 1515 1516 1516 1516 1516 1516 1516 1517 1517 1516 1516 1517 1517 1518 1518 1519 1520 1521 1522 1523 1524 1525 1526 1527 1528 1529 1529 1530 1531 1531 1532 1533 1533 1534 1534 1535 1535 1536
1516 1516 1517 1517 1517 1518 1518 1518 1519 1519 1519 1519 1519 1520 1519 1519 1520 1520 1520 1521 1522 1522 1523 1524 1525 1526 1527 1528 1528 1529 1529 1530 1530 1531 1532 1532 1533 1533 1534 1534 1535 1535 1535
1517 1518 1518 1518 1519 1519 1520 1521 1521 1521 1522 1522 1522 1522 1522 1522 1522 1522 1523 1523 1524 1524 1525 1526 1527 1527 1528 1528 1529 1529 1530 1530 1531 1531 1532 1532 1533 1534 1534 1534 1535 1535 1534
1518 1519 1519 1520 1520 1521 1522 1523 1523 1523 1524 1524 1524 1524 1524 1524 1524 1524 1524 1525 1525 1526 1526 1527 1528 1528 1529 1529 1529 1530 1530 1530 1531 1531 1532 1532 1533 1533 1533 1534 1534 1534 1534
1519 1520 1520 1521 1522 1523 1523 1524 1524 1525 1525 1525 1525 1525 1525 1525 1525 1526 1526 1526 1527 1527 1528 1528 1529 1529 1529 1529 1530 1530 1530 1530 1531 1531 1532 1532 1532 1532 1533 1533 1533 1533 1533
1520 1521 1521 1522 1523 1524 1524 1525 1525 1526 1526 1526 1526 1526 1526 1527 1527 1527 1527 1527 1528 1528 1528 1529 1529 1530 1530 1530 1530 1530 1530 1531 1531 1531 1531 1531 1531 1532 1532 1532 1532 1532 1532
1520 1521 1522 1522 1523 1524 1525 1525 1526 1526 1527 1527 1527 1527 1527 1527 1528 1528 1528 1528 1528 1528 1529 1529 1529 1529 1530 1530 1530 1530 1530 1531 1530 1531 1531 1531 1531 1531 1531 1531 1531 1531 1530
1520 1521 1522 1522 1523 1524 1525 1526 1526 1527 1527 1527 1527 1528 1528 1528 1528 1528 1528 1528 1528 1528 1529 1529 1529 1529 1529 1530 1530 1531 1530 1530 1530 1530 1530 1530 1530 1530 1530 1530 1530 1529 1529
1519 1520 1521 1522 1523 1524 1525 1526 1526 1527 1527 1527 1528 1528 1528 1528 1528 1528 1528 1528 1528 1528 1528 1528 1529 1529 1529 1529 1529 1530 1530 1530 1530 1529 1530 1529 1529 1529 1529 1528 1528 1528 1527
1518 1520 1521 1522 1523 1524 1524 1525 1526 1526 1527 1527 1528 1528 1528 1528 1528 1528 1528 1528 1528 1527 1527 1528 1528 1528 1528 1528 1528 1528 1529 1529 1529 1528 1528 1528 1528 1528 1527 1527 1527 1526 1526
1517 1519 1520 1521 1522 1523 1524 1525 1525 1526 1526 1527 1527 1527 1527 1528 1528 1528 1527 1527 1527 1527 1527 1527 1527 1527 1527 1527 1527 1527 1527 1527 1527 1527 1527 1526 1526 1526 1526 1526 1526 1525 1525